Location: Unspecified
(52.4292°N, 19.3359°E)
Time: 20:09:53
(UTC+02:00)

Altair - Pass Details

Date: 21 May 2024
Orbit: 1502 x 1682 km, 47.2° (Epoch: 12 June)

Event Time Altitude Azimuth Distance (km) Brightness Sun altitude
Rises 10:36:39 0° 211° (SSW) 4,816 10.2 50.1°
Reaches altitude 10° 10:40:04 10° 203° (SSW) 3,857 9.9 50.5°
Maximum altitude 10:48:40 35° 142° (SE) 2,443 10.5 51.4°
Drops below altitude 10° 10:57:27 10° 82° (E) 3,946 10.1 52.3°
Sets 11:00:58 0° 74° (ENE) 4,940 10.4 52.7°
